This demonstration page uses our WeatherBlox Daily Observations layout. Learn more.

Left ArrowRight Arrow

34.74481, -87.66753

Hourly Observations for June 2, 2021

Temp ( °F °C ) Dew Point ( °F °C ) Humidity (%) Winds ( mph kmh ) Pressure ( in mb ) Visibility ( mi km ) Precip ( " mm )
12:53 am 00:53 Cloudy 76 24.4 62 16.7 62 62 SSE 9 15 29.99 1016 10 16 0.00 0.00
1:53 am 01:53 Cloudy with Heavy Rain 71 21.7 64 17.8 79 79 S 12 19 30.02 1017 3 5 0.17 4.32
2:03 am 02:03 Cloudy with Heavy Rain 70 21.1 65 18.3 84 84 S 10 17 30.02 1016 3 4 0.10 2.54
2:25 am 02:25 Cloudy with Heavy Rain 70 21.1 65 18.3 84 84 VRB 5 7 30.01 1016 2 2 0.35 8.89
2:41 am 02:41 Cloudy with Heavy Rain 70 21.1 65 18.3 84 84 SSE 8 13 30.01 1016 2 3 0.52 13.21
2:48 am 02:48 Cloudy with Rain 70 21 64 18 83 83 SSE 9 15 30.01 1016 3 5 0.56 14.22
2:53 am 02:53 Cloudy with Rain 70 21.1 65 18.3 84 84 SSE 9 15 30.01 1016 4 6 0.58 14.73
3:04 am 03:04 Cloudy with Heavy Rain 70 21.1 65 18.3 84 84 SSE 12 19 30.02 1016 3 4 0.10 2.54
3:10 am 03:10 Cloudy with Heavy Rain 70 21.1 65 18.3 84 84 S 7 11 30.02 1016 3 4 0.13 3.30
3:23 am 03:23 Cloudy with Heavy Rain 70 21.1 65 18.3 84 84 SSE 6 9 30.01 1016 2 3 0.24 6.10
3:34 am 03:34 Cloudy with Rain 70 21.1 65 18.3 84 84 SE 8 13 30.01 1016 4 6 0.26 6.60
3:41 am 03:41 Cloudy with Rain 70 21.1 65 18.3 84 84 SE 8 13 30.01 1016 5 8 0.28 7.11
3:53 am 03:53 Cloudy with Rain 70 21.1 65 18.3 84 84 SE 8 13 30.00 1016 5 8 0.32 8.13
4:29 am 04:29 Cloudy with Rain 70 21.1 65 18.3 84 84 SE 7 11 30.00 1016 4 6 0.18 4.57
4:53 am 04:53 Cloudy with Light Rain 69 20.6 65 18.3 87 87 ESE 8 13 29.98 1015 5 8 0.23 5.84
5:05 am 05:05 Cloudy 69 20.6 65 18.3 87 87 SE 7 11 29.99 1015 10 16 0.00 0.00
5:26 am 05:26 Cloudy with Light Rain 69 20.6 64 17.8 84 84 S 8 13 30.01 1016 7 11 0.03 0.76
5:50 am 05:50 Cloudy 70 21 64 18 83 83 ESE 8 13 29.98 1015 10 16 0.03 0.76
5:53 am 05:53 Cloudy 69 20.6 64 17.8 84 84 ESE 8 13 29.96 1015 10 16 0.03 0.76
6:53 am 06:53 Cloudy with Rain 69 20.6 64 17.8 84 84 ESE 8 13 29.97 1015 3 5 0.03 0.76
7:29 am 07:29 Cloudy 69 20.6 64 17.8 84 84 SE 9 15 29.99 1015 10 16 0.00 0.00
7:37 am 07:37 Cloudy with Light Rain 69 20.6 64 17.8 84 84 SE 13 20 29.99 1015 8 13 0.00 0.00
7:53 am 07:53 Cloudy 70 21.1 65 18.3 84 84 SSE 12 19 29.98 1015 10 16 0.00 0.00
8:53 am 08:53 Cloudy with Light Rain 69 20.6 61 16.1 76 76 SSW 13 20 30.00 1016 6 10 0.03 0.76
9:53 am 09:53 Cloudy with Light Rain 70 21.1 62 16.7 76 76 SSW 14 22 30.01 1016 7 11 0.01 0.25
10:53 am 10:53 Cloudy 74 23.3 64 17.8 71 71 S 12 19 29.99 1016 10 16 0.00 0.00
11:53 am 11:53 Cloudy 77 25 65 18.3 66 66 S 9 15 29.98 1015 10 16 0.00 0.00
12:42 pm 12:42 Cloudy 79 26.1 65 18.3 62 62 SSW 13 20 29.97 1015 10 16 0.00 0.00
12:53 pm 12:53 Cloudy 80 26.7 66 18.9 62 62 SSW 12 19 29.96 1015 10 16 0.00 0.00
1:13 pm 13:13 Cloudy 79 26.1 66 18.9 65 65 SSW 9 15 29.96 1014 10 16 0.00 0.00
1:24 pm 13:24 Cloudy 80 26.7 67 19.4 64 64 SSW 10 17 29.94 1014 10 16 0.00 0.00
1:53 pm 13:53 Mostly Cloudy 81 27.2 66 18.9 61 61 SSW 18 30 29.95 1014 10 16 0.00 0.00
2:53 pm 14:53 Cloudy 81 27.2 67 19.4 62 62 SW 10 17 29.92 1013 10 16 0.00 0.00
3:12 pm 15:12 Cloudy with Thunderstorms 77 25 68 20 74 74 W 12 19 29.94 1014 5 8 0.03 0.76
3:16 pm 15:16 Cloudy with Strong Thunderstorms 76 24.4 68 20 77 77 W 23 37 29.94 1014 2 3 0.12 3.05
3:25 pm 15:25 Cloudy with Strong Thunderstorms 74 23.3 62 16.7 67 67 W 10 17 29.91 1013 1 1 0.45 11.43
3:31 pm 15:31 Cloudy with Thunderstorms 76 24.4 62 16.7 62 62 W 7 11 29.92 1013 2 3 0.45 11.43
3:38 pm 15:38 Cloudy with Thunderstorms 73 22.8 64 17.8 74 74 WNW 6 9 29.91 1013 10 16 0.45 11.43
3:53 pm 15:53 Cloudy with Strong Thunderstorms 71 21.7 65 18.3 81 81 WNW 13 20 29.96 1015 2 3 0.66 16.76
4:01 pm 16:01 Cloudy with Strong Thunderstorms 71 21.7 65 18.3 81 81 SW 14 22 29.95 1014 2 2 0.15 3.81
4:08 pm 16:08 Cloudy with Strong Thunderstorms 69 20.6 63 17.2 81 81 VRB 3 6 29.94 1014 1 2 0.28 7.11
4:18 pm 16:18 Mostly Cloudy with Thunderstorms 69 20.6 63 17.2 81 81 ESE 6 9 29.93 1013 4 6 0.30 7.62
4:32 pm 16:32 Mostly Cloudy with Nearby Thunderstorms 69 20.6 63 17.2 81 81 S 8 13 29.94 1014 10 16 0.30 7.62
4:53 pm 16:53 Mostly Cloudy with Light Rain 68 20 62 16.7 81 81 SSE 9 15 29.93 1014 10 16 0.30 7.62
5:53 pm 17:53 Cloudy 71 21.7 64 17.8 79 79 S 7 11 29.93 1014 10 16 0.01 0.25
6:53 pm 18:53 Mostly Cloudy 72 22.2 66 18.9 82 82 SSE 7 11 29.92 1013 10 16 0.00 0.00
7:53 pm 19:53 Mostly Cloudy 72 22.2 66 18.9 82 82 SSE 3 6 29.93 1013 10 16 0.00 0.00
8:53 pm 20:53 Cloudy 72 22.2 66 18.9 82 82 S 7 11 29.93 1014 10 16 0.00 0.00
9:53 pm 21:53 Partly Cloudy 71 21.7 66 18.9 84 84 SSE 6 9 29.95 1014 10 16 0.00 0.00
10:53 pm 22:53 Cloudy 71 21.7 66 18.9 84 84 ESE 5 7 29.95 1014 10 16 0.00 0.00
11:53 pm 23:53 Mostly Cloudy 71 21.7 66 18.9 84 84 SE 5 7 29.95 1014 10 16 0.00 0.00

Powered by AerisWeather